Wind_Speed
18 18 17 16 15 15 15 14 14 13 13 12 11 11 10 10 9 9 9 9 8 8 7 7 6 6 6 6 6 6 6 6 6 7 7 8 8 9 9 10 10 12 13
22 21 20 19 18 17 17 16 16 16 15 15 14 14 13 13 12 11 11 10 10 10 9 9 8 8 8 8 8 8 8 8 8 8 8 8 9 10 10 10 11 12 13
26 25 23 22 21 20 18 18 18 18 17 17 16 16 15 15 15 14 13 13 12 12 11 11 11 10 10 9 9 9 9 9 9 9 9 9 10 10 11 12 12 13 13
30 29 26 24 23 23 21 20 20 20 19 19 18 18 17 17 17 17 16 15 15 14 14 13 13 12 12 11 11 11 11 11 11 10 11 11 11 11 12 13 14 14 14
31 31 30 28 26 24 24 23 23 22 21 20 20 20 20 19 19 19 19 18 17 16 16 16 16 15 14 14 13 13 13 13 12 12 12 13 13 13 13 14 15 15 16
32 31 30 29 27 26 25 25 25 24 23 23 22 21 21 21 21 21 21 20 19 19 18 18 18 17 17 16 16 15 15 14 14 14 14 14 14 14 15 15 16 16 16
35 34 31 31 31 28 27 26 26 25 24 24 23 23 23 23 23 23 23 22 22 21 21 20 20 20 19 19 18 18 17 17 16 16 16 16 16 16 16 17 17 17 18
38 37 34 33 32 30 29 28 27 26 26 25 25 24 24 24 24 24 24 24 24 24 23 23 23 22 21 21 21 20 19 19 19 19 18 18 18 18 18 18 18 19 19
40 40 37 35 34 32 31 30 29 28 27 27 27 25 25 24 25 25 26 26 26 26 25 25 25 25 24 23 23 22 22 21 21 21 20 20 20 20 20 20 20 20 21
40 39 39 39 38 35 33 32 31 30 30 29 28 27 28 27 26 26 27 27 27 27 27 27 27 26 26 26 25 25 24 24 23 23 22 22 21 21 21 21 21 22 22
39 38 38 37 37 37 36 35 33 32 31 30 29 28 29 30 29 29 29 30 30 29 29 29 28 28 28 28 27 26 26 25 25 24 24 23 23 23 22 23 23 23 23
37 38 38 38 37 37 37 35 34 32 33 32 32 31 30 30 30 32 32 31 31 31 31 31 30 31 30 30 29 28 27 27 26 25 25 24 24 24 24 24 24 24 24
35 36 37 37 36 36 35 34 34 34 34 34 33 33 32 32 31 31 32 31 31 31 32 31 31 31 31 32 31 30 29 28 27 27 26 25 25 25 24 24 25 25 25
32 33 34 35 36 37 35 34 34 33 32 32 33 32 31 32 33 33 32 33 33 33 32 32 33 33 32 33 33 32 31 29 28 28 27 26 26 26 25 25 25 25 25
26 28 31 32 34 34 33 33 32 32 31 31 31 31 31 32 34 34 33 33 33 33 33 33 33 32 33 34 34 33 33 32 31 29 28 28 28 27 26 25 25 25 26
21 23 26 28 29 30 30 30 31 31 31 31 31 31 31 31 32 32 32 32 32 32 32 32 32 32 32 33 34 34 34 34 33 31 30 29 28 27 26 26 25 25 25
17 19 21 23 24 25 26 28 28 28 29 29 30 30 30 30 32 32 32 31 32 32 32 32 32 32 32 32 32 33 33 32 30 29 28 27 27 26 25 25 25 25 26
12 14 16 18 20 21 22 24 25 26 28 29 29 30 30 29 30 30 30 30 31 31 31 31 31 30 30 30 31 31 30 29 28 27 26 26 26 26 25 25 25 26 26
7 8 10 12 15 17 19 20 21 23 24 25 26 27 28 29 29 29 30 31 31 30 30 31 30 30 30 30 30 29 28 27 26 25 25 25 25 25 25 25 25 26 26
3 4 5 8 11 13 16 17 18 20 21 22 23 24 25 26 26 27 28 28 29 29 29 29 29 29 29 29 29 28 26 26 25 24 24 24 23 24 24 25 26 26 26
2 3 5 6 8 10 12 13 15 16 17 19 20 20 22 22 23 24 25 25 25 25 25 25 25 25 24 24 24 23 22 22 23 23 23 23 23 24 24 24 25 26 26
5 4 4 4 4 6 8 10 11 12 13 14 15 16 16 18 19 20 20 20 21 21 21 21 22 21 20 20 19 19 20 20 21 21 22 22 23 23 24 24 25 26 26
9 8 6 5 4 4 4 6 7 9 10 12 12 12 13 13 14 15 16 17 17 16 16 17 17 17 17 18 18 19 19 20 21 21 21 21 22 22 23 23 23 24 24
11 10 8 7 5 3 3 3 4 5 7 8 9 9 10 11 11 11 12 13 14 14 14 15 15 16 16 17 18 18 19 19 19 19 20 20 20 21 21 21 21 22 23
13 11 10 9 8 5 3 2 2 4 5 6 7 8 8 9 10 10 11 12 13 13 12 12 13 13 14 15 15 16 16 16 17 17 17 18 18 18 19 19 20 20 20
14 13 12 11 10 8 5 3 1 1 3 4 5 6 7 7 8 8 9 10 11 12 12 12 13 13 13 13 14 14 14 14 14 14 15 15 15 16 17 17 18 18 17
Wind_Direction
250 249 249 251 252 249 248 251 252 252 252 251 251 250 246 242 243 242 243 244 245 246 247 249 251 252 251 252 252 253 252 250 249 250 251 248 248 246 242 242 246 246 247
248 250 250 251 251 251 250 250 251 253 253 251 250 249 248 245 243 243 242 243 245 246 246 247 248 249 250 251 251 250 250 250 251 252 252 252 253 251 251 250 251 252 253
247 247 249 251 251 252 252 249 251 252 253 253 250 248 247 247 245 244 243 244 245 245 245 245 246 247 250 252 252 251 251 250 251 252 254 254 254 254 254 255 256 256 257
249 246 248 249 251 250 249 249 250 252 253 253 250 248 246 246 246 244 244 244 245 245 245 244 244 246 248 251 252 252 252 251 250 251 252 254 254 255 256 256 257 259 260
250 248 247 247 249 250 248 248 250 250 251 252 251 249 247 247 247 245 244 245 245 245 245 245 245 245 248 251 252 251 252 252 251 252 252 253 254 255 257 258 259 261 262
251 250 249 248 249 250 250 249 251 252 251 251 252 251 249 248 247 246 246 246 247 247 247 246 247 247 247 250 251 251 251 253 253 254 255 255 255 256 258 260 260 261 262
252 252 250 250 249 249 251 249 250 251 251 250 250 250 250 249 247 246 247 248 249 249 249 248 247 247 247 249 250 251 251 252 254 255 257 257 258 258 259 260 261 262 263
253 252 251 251 251 251 251 250 248 250 251 249 248 249 248 247 248 248 246 248 250 251 251 250 247 247 248 248 249 249 251 252 254 255 256 257 258 258 259 260 261 262 264
255 252 252 253 252 253 253 251 247 250 251 250 249 248 247 246 250 249 248 250 251 251 252 251 249 247 248 249 249 249 250 252 254 254 255 256 258 259 260 261 261 262 263
253 251 251 252 253 252 251 251 250 253 253 250 248 248 247 246 248 249 249 251 251 252 252 252 249 249 249 249 249 250 251 251 253 255 255 256 257 259 260 262 263 263 264
251 250 250 250 251 252 251 251 252 253 250 249 247 247 248 247 248 249 250 251 252 252 252 252 251 251 251 250 250 251 252 252 253 255 256 257 257 258 260 262 263 264 266
249 249 250 250 249 249 249 248 248 248 247 248 248 248 248 247 249 249 249 249 250 252 253 252 252 251 251 250 251 252 252 252 253 254 255 256 257 259 260 262 263 265 266
247 246 247 247 247 248 247 247 247 247 248 249 248 249 249 248 248 249 249 249 250 252 253 253 253 253 251 250 251 252 252 253 252 253 255 256 258 259 260 263 264 265 266
247 246 246 246 247 248 248 249 247 246 248 248 247 248 249 248 247 247 248 249 249 251 253 254 255 254 252 250 250 251 250 251 252 253 254 256 258 258 260 262 264 265 266
246 246 245 245 246 246 246 245 245 246 247 248 247 248 250 250 248 248 248 249 250 252 253 255 255 253 251 250 250 249 251 251 251 252 254 256 257 257 259 262 264 265 267
244 243 242 241 242 245 246 245 247 246 247 248 247 249 249 249 248 248 248 248 250 251 253 255 255 254 253 251 250 248 250 250 250 251 254 255 255 256 258 261 263 266 268
244 241 241 243 246 247 245 245 245 243 243 244 245 247 248 248 247 246 246 247 249 252 253 254 253 253 250 250 249 249 248 248 247 249 252 253 254 255 257 261 264 267 270
247 246 244 243 244 244 245 247 247 245 246 246 247 247 247 246 247 247 246 248 250 250 251 251 251 250 249 248 249 246 247 246 247 249 251 253 255 257 259 262 265 268 272
255 249 249 246 246 247 248 249 249 248 248 248 248 247 246 245 245 246 248 250 248 248 250 250 249 250 250 248 247 246 247 247 246 248 251 253 256 260 262 264 267 270 273
280 262 253 254 252 250 250 249 250 250 249 247 247 246 245 244 244 245 246 247 246 247 247 246 247 248 249 247 245 245 246 246 246 248 252 254 258 262 265 267 270 273 274
338 294 280 267 259 251 248 247 250 248 245 246 246 243 239 238 240 240 242 243 243 243 242 242 243 246 246 244 243 244 245 247 248 251 255 258 262 265 267 270 272 274 275
16 351 320 293 279 260 251 249 249 245 241 240 239 237 237 235 234 234 238 238 239 238 240 241 241 240 241 241 242 243 245 248 252 254 257 261 264 268 270 272 274 275 276
21 13 5 346 317 297 275 255 250 244 235 231 232 236 237 233 230 233 234 234 234 233 236 236 237 241 243 243 243 245 248 251 254 257 260 265 268 269 271 273 275 276 277
23 19 15 8 357 348 327 288 262 251 238 228 230 232 233 233 229 226 227 230 230 231 232 231 233 237 240 243 245 247 250 253 255 257 260 264 266 270 272 274 276 277 279
25 24 22 17 14 9 0 337 276 263 255 241 242 240 234 229 228 225 223 223 224 223 224 230 232 235 236 239 242 247 250 253 256 257 260 264 267 272 274 275 276 278 278
28 27 27 25 23 23 24 21 347 288 255 247 243 238 232 226 224 223 222 224 224 226 229 233 236 238 240 242 243 247 251 253 256 259 261 265 268 272 275 277 278 280 280
Height
5899 5899 5900 5900 5900 5901 5901 5902 5902 5903 5903 5903 5904 5905 5905 5905 5906 5906 5906 5906 5906 5907 5907 5907 5907 5907 5908 5908 5908 5908 5908 5909 5909 5909 5909 5910 5910 5911 5911 5912 5913 5914 5915
5894 5894 5895 5896 5896 5897 5897 5898 5898 5899 5899 5900 5900 5901 5902 5903 5903 5903 5904 5904 5904 5905 5905 5905 5905 5905 5906 5906 5906 5907 5907 5907 5907 5908 5908 5908 5909 5909 5910 5910 5911 5911 5912
5888 5889 5889 5890 5891 5892 5892 5893 5894 5895 5895 5896 5897 5897 5898 5899 5900 5900 5901 5901 5902 5902 5903 5903 5903 5903 5904 5904 5904 5905 5905 5905 5905 5906 5906 5906 5907 5907 5907 5908 5909 5909 5909
5881 5882 5884 5885 5886 5887 5888 5889 5889 5890 5891 5892 5892 5893 5894 5895 5896 5897 5897 5898 5899 5899 5900 5900 5901 5901 5901 5902 5902 5902 5903 5903 5903 5903 5904 5904 5904 5905 5905 5905 5906 5906 5906
5875 5876 5877 5878 5880 5881 5882 5883 5884 5885 5886 5887 5888 5889 5890 5891 5892 5893 5893 5894 5895 5896 5896 5897 5898 5898 5899 5899 5899 5900 5900 5900 5901 5901 5901 5901 5902 5902 5902 5902 5903 5903 5903
5868 5869 5870 5871 5873 5874 5875 5877 5878 5879 5881 5882 5883 5884 5885 5886 5887 5888 5889 5890 5891 5892 5892 5893 5894 5895 5895 5896 5896 5897 5897 5897 5898 5898 5898 5898 5898 5899 5899 5899 5899 5899 5899
5860 5861 5863 5864 5866 5867 5869 5870 5872 5873 5874 5876 5877 5878 5879 5881 5882 5883 5884 5885 5886 5887 5888 5889 5890 5891 5891 5892 5892 5893 5893 5894 5894 5894 5895 5895 5895 5895 5895 5895 5896 5896 5896
5851 5853 5855 5857 5858 5860 5861 5863 5865 5866 5868 5870 5871 5872 5873 5876 5876 5877 5879 5880 5881 5882 5883 5884 5885 5886 5887 5888 5888 5889 5889 5890 5890 5890 5890 5891 5891 5891 5891 5891 5891 5891 5891
5842 5844 5846 5849 5851 5852 5854 5855 5857 5859 5861 5863 5864 5866 5867 5869 5870 5871 5873 5874 5875 5876 5877 5878 5879 5881 5882 5883 5884 5884 5885 5885 5886 5886 5886 5886 5886 5886 5886 5886 5886 5886 5886
5832 5835 5837 5840 5842 5844 5846 5848 5849 5851 5853 5855 5857 5859 5861 5862 5863 5865 5867 5868 5869 5870 5871 5872 5873 5875 5876 5877 5878 5879 5880 5880 5881 5881 5881 5881 5881 5881 5881 5881 5881 5881 5881
5823 5825 5828 5830 5833 5835 5837 5839 5842 5844 5846 5847 5849 5851 5853 5855 5856 5858 5860 5861 5862 5863 5864 5866 5867 5868 5870 5871 5872 5873 5874 5875 5875 5875 5876 5876 5876 5876 5876 5876 5876 5876 5875
5813 5816 5818 5821 5824 5826 5828 5830 5833 5835 5837 5839 5841 5843 5845 5847 5849 5850 5852 5853 5855 5856 5857 5859 5860 5862 5863 5864 5866 5867 5868 5869 5869 5869 5870 5870 5870 5870 5870 5870 5870 5870 5869
5804 5806 5809 5812 5815 5817 5819 5822 5824 5827 5828 5830 5833 5835 5837 5839 5841 5842 5844 5846 5847 5848 5850 5851 5852 5854 5855 5857 5858 5860 5861 5862 5863 5863 5864 5864 5864 5864 5864 5864 5864 5864 5863
5796 5798 5801 5803 5806 5808 5811 5813 5816 5818 5820 5822 5825 5827 5829 5831 5832 5834 5836 5838 5839 5840 5842 5843 5844 5846 5847 5849 5851 5852 5853 5855 5856 5856 5857 5857 5857 5858 5858 5857 5857 5857 5857
5788 5790 5793 5795 5797 5799 5802 5804 5807 5809 5812 5814 5816 5818 5820 5822 5824 5826 5828 5830 5831 5832 5834 5835 5836 5837 5839 5841 5842 5844 5845 5847 5848 5849 5850 5850 5850 5851 5851 5851 5851 5851 5850
5782 5783 5785 5787 5789 5791 5794 5797 5799 5801 5804 5806 5808 5810 5812 5814 5815 5817 5819 5821 5823 5825 5825 5827 5828 5829 5831 5832 5834 5836 5837 5839 5840 5841 5842 5843 5843 5844 5844 5844 5844 5844 5844
5777 5778 5780 5782 5783 5785 5787 5790 5792 5794 5796 5798 5800 5802 5804 5806 5807 5809 5811 5813 5815 5816 5817 5818 5820 5821 5823 5824 5826 5827 5829 5830 5832 5833 5835 5835 5836 5837 5837 5838 5838 5837 5837
5774 5775 5776 5777 5779 5780 5782 5783 5785 5787 5789 5791 5793 5794 5796 5798 5800 5801 5803 5805 5807 5808 5810 5811 5812 5813 5815 5817 5818 5820 5821 5823 5825 5826 5827 5828 5829 5830 5830 5831 5831 5831 5830
5772 5772 5773 5774 5775 5776 5777 5778 5779 5781 5782 5784 5785 5787 5788 5790 5792 5794 5796 5798 5799 5801 5802 5804 5805 5806 5808 5809 5811 5813 5814 5816 5818 5819 5820 5821 5822 5823 5824 5824 5824 5823 5823
5771 5771 5771 5771 5772 5772 5773 5773 5774 5775 5777 5778 5779 5780 5782 5783 5785 5787 5789 5790 5792 5793 5795 5796 5797 5799 5801 5802 5804 5806 5808 5810 5811 5813 5814 5815 5816 5817 5817 5817 5817 5816 5816
5771 5770 5770 5769 5768 5768 5768 5769 5770 5770 5771 5772 5773 5774 5775 5777 5779 5780 5782 5784 5785 5787 5788 5789 5791 5793 5794 5796 5798 5800 5802 5804 5805 5807 5808 5809 5810 5810 5810 5810 5810 5809 5809
5771 5769 5768 5767 5766 5765 5765 5765 5766 5766 5766 5767 5768 5769 5770 5772 5773 5775 5776 5778 5779 5781 5782 5784 5785 5787 5789 5791 5793 5795 5797 5799 5800 5802 5802 5803 5804 5804 5804 5804 5803 5803 5802
5771 5769 5767 5766 5764 5763 5763 5762 5762 5763 5763 5763 5764 5765 5766 5767 5768 5770 5771 5773 5774 5776 5778 5780 5781 5783 5785 5786 5788 5790 5792 5794 5795 5796 5797 5797 5798 5798 5798 5797 5797 5796 5795
5771 5769 5767 5765 5763 5762 5761 5761 5760 5760 5760 5761 5761 5762 5763 5764 5765 5766 5768 5769 5770 5772 5774 5776 5778 5779 5781 5783 5784 5786 5787 5789 5789 5790 5791 5792 5792 5792 5792 5791 5791 5790 5789
5773 5770 5767 5765 5763 5761 5760 5759 5759 5758 5758 5759 5759 5760 5760 5761 5762 5763 5765 5766 5767 5769 5770 5772 5774 5776 5777 5779 5780 5782 5783 5784 5785 5785 5786 5787 5787 5787 5787 5786 5785 5784 5783
5774 5771 5769 5766 5763 5761 5760 5759 5758 5758 5757 5757 5757 5757 5758 5759 5760 5761 5762 5763 5764 5766 5768 5769 5771 5772 5774 5775 5776 5778 5779 5780 5781 5781 5782 5782 5783 5783 5782 5781 5780 5779 5778